sat.trackr.live / text

‹ back to catalog

STARLINK-32921

NORAD 62920 · 2025-027P

PAYLOAD ACTIVE UNKNOWN

§ Identity

Operator
Country
US
Launch date
2025-02-08
Launch site
AFETR
Launch vehicle
Mass (kg)
RCS (m²)

Purposes: comms

External: N2YO · Heavens-Above · Gunter

§ Orbital elements

Epoch: 2026-05-25T03:00:10.328256Z

Period
94.27 min
Inclination
43.0009°
Eccentricity
0.0001299
Mean motion
15.27588710 rev/d
Perigee alt
482.1 km
Apogee alt
483.9 km
Semi-major
6,861.2 km
B*
5.5326e-4
RAAN
57.0758°
Arg perigee
259.5450°
Mean anomaly
100.5255°
Rev number
7,323

§ Raw data

STARLINK-329211 62920U 25027P   26145.12511954  .00014998  00000+0  55326-3 0  99952 62920  43.0009  57.0758 0001299 259.5450 100.5255 15.27588710 73237

JSON: /api/v1/satellites/62920 · /tle

For live sub-satellite position, see the globe view (requires WebGL).

§ Visibility from observer

Set your observer location to see the next 7 days of passes ≥ 10°. The values pass through the URL so the page stays shareable.

No JS? Fill the form by hand. The geolocation button needs JavaScript.